Wind_Speed
15 17 19 21 23 26 28 31 33 34 36 37 37 38 37 37 37 37 36 35 35 35 35 35 35 35 34 34 33 32 29 28 26 24 23 23 22 22 25 26 27 28 30
13 15 18 21 23 25 28 30 31 33 34 35 35 36 35 35 35 36 35 35 34 35 35 35 36 36 35 35 35 34 32 31 29 27 25 24 23 23 24 26 27 29 30
12 14 17 19 21 23 25 26 28 30 31 32 33 34 34 35 34 35 35 34 33 33 33 33 34 35 35 35 35 35 34 33 32 29 28 26 25 24 24 25 26 27 29
12 14 17 19 21 23 24 26 27 29 30 31 32 33 33 34 34 34 34 35 35 34 34 33 32 32 33 33 34 34 34 34 34 32 31 30 28 27 26 25 25 27 28
14 17 19 21 23 24 25 26 27 28 30 31 32 33 34 34 35 35 35 36 36 36 35 34 32 31 31 31 31 32 33 34 35 35 34 32 31 30 29 27 26 27 28
19 21 23 24 26 27 27 28 29 29 31 32 33 35 35 36 37 37 37 37 37 37 37 35 33 32 31 30 30 30 30 31 33 35 36 36 34 33 32 30 29 28 29
24 26 28 29 30 31 31 31 31 32 33 34 35 36 37 37 38 38 38 38 38 38 38 38 36 34 32 30 30 31 31 31 31 33 35 37 37 37 35 33 32 31 30
27 29 31 33 34 35 35 35 35 35 35 36 36 37 38 38 39 39 39 39 39 39 40 40 39 37 35 33 32 32 33 34 33 34 35 36 37 39 39 37 35 33 32
29 32 34 35 37 37 37 37 37 37 37 37 37 38 38 38 38 39 39 40 40 41 40 41 41 41 39 37 36 34 35 36 36 36 37 37 38 39 41 41 39 36 34
30 33 35 37 38 38 38 38 38 38 38 38 38 38 38 38 39 40 40 41 42 42 42 42 42 42 41 41 40 39 38 38 39 39 39 40 41 41 41 43 43 41 38
30 33 36 37 38 39 39 39 39 38 38 38 38 39 39 40 41 42 42 43 43 42 42 42 41 41 42 42 42 42 42 41 41 42 43 43 45 45 44 44 45 44 43
31 33 36 37 38 39 39 38 38 38 39 39 39 40 41 42 43 44 44 43 43 42 41 41 41 41 41 42 43 44 44 44 44 44 45 46 48 49 49 48 47 47 47
31 34 37 38 39 38 37 38 38 39 40 40 41 42 43 44 45 45 44 43 42 41 40 39 40 41 42 42 44 45 46 47 48 48 48 49 50 52 53 53 52 50 49
33 36 38 38 38 38 38 39 40 41 42 43 44 44 45 45 45 45 44 42 41 39 39 39 40 41 42 43 45 46 47 49 50 51 51 52 53 54 56 57 57 55 53
34 36 37 38 39 39 40 41 42 43 44 45 46 46 46 47 46 45 43 41 39 39 39 39 40 42 43 44 45 46 47 49 50 52 53 53 54 55 58 60 61 60 58
34 35 37 38 40 40 41 42 43 45 46 47 47 47 47 47 46 44 41 40 39 39 39 40 41 42 43 44 45 45 46 47 48 50 52 54 54 55 57 60 63 64 63
34 36 38 39 40 41 42 43 45 46 47 48 49 49 49 47 45 43 41 40 40 39 40 41 42 41 42 43 43 44 45 46 46 47 49 51 52 54 56 59 63 66 67
35 37 39 40 40 42 43 44 46 47 48 49 49 50 49 48 45 43 42 41 40 40 41 41 41 41 41 41 42 43 44 43 44 45 47 48 50 52 54 57 62 66 68
37 39 40 40 41 42 44 45 47 47 48 49 49 50 49 47 45 43 41 40 40 40 40 40 40 40 40 41 41 41 42 41 42 43 43 44 47 50 52 55 60 65 68
38 40 40 41 42 43 44 45 47 47 48 48 49 49 49 47 45 43 41 40 40 40 39 38 38 39 39 39 39 39 38 37 36 36 38 40 43 46 49 52 57 63 67
38 40 41 42 43 44 44 46 46 47 47 48 49 49 49 48 45 43 41 40 40 39 38 37 37 38 38 36 35 34 32 30 29 29 30 32 37 41 45 49 53 59 64
39 40 41 42 43 45 45 46 46 46 47 48 49 49 49 48 45 43 41 40 40 38 37 36 36 37 36 32 30 28 26 24 22 20 22 25 30 35 40 44 49 54 59
40 41 41 43 44 45 45 45 46 46 47 48 49 49 49 47 45 42 41 40 39 38 37 35 35 34 32 28 26 24 21 17 14 12 14 19 25 29 35 40 46 49 53
42 42 43 44 45 45 45 45 45 46 47 47 48 48 48 46 44 42 41 40 39 37 36 34 33 32 29 25 23 21 16 11 7 5 8 15 21 26 32 37 42 44 47
43 43 44 45 46 46 45 46 46 46 47 47 47 48 47 45 43 41 40 39 37 36 34 32 31 29 26 23 21 17 12 7 3 2 7 13 18 22 28 32 36 40 44
44 44 46 47 48 48 47 47 46 46 46 46 46 46 46 44 42 40 39 38 36 35 33 31 29 26 23 20 18 14 10 6 2 4 8 12 16 20 25 31 33 37 41
Wind_Direction
288 290 291 292 292 291 291 291 292 293 293 293 294 294 294 294 294 293 292 290 288 286 284 282 280 279 278 277 277 276 275 273 273 272 268 265 261 257 251 245 241 239 235
292 293 293 293 292 291 291 290 291 291 291 292 293 294 295 294 294 293 292 290 287 285 283 281 280 278 277 276 275 274 272 271 269 267 265 262 259 257 254 249 245 241 237
306 307 307 304 300 297 294 294 293 293 293 294 295 296 297 297 296 296 295 293 291 289 286 283 281 279 277 274 272 270 268 267 264 261 259 257 255 254 253 251 248 243 239
330 327 323 318 314 310 306 303 302 300 300 300 300 301 301 301 300 300 299 298 296 294 292 289 286 282 278 275 271 268 264 262 260 257 255 253 252 251 249 249 248 245 240
345 341 336 330 325 321 318 314 310 308 306 305 304 304 303 303 302 302 301 299 298 297 295 293 290 286 282 278 273 268 264 259 256 254 251 249 248 247 246 245 244 244 241
352 347 343 338 334 330 326 322 316 312 308 306 305 305 304 304 303 302 301 300 299 298 296 294 292 289 285 280 275 270 265 259 255 252 249 246 244 241 241 241 241 241 240
353 349 345 342 339 335 330 325 321 317 313 310 308 307 306 304 303 302 301 300 299 297 296 294 291 288 285 280 274 270 266 260 255 252 249 246 242 239 237 236 238 238 237
350 347 345 342 339 335 331 327 323 319 316 313 310 308 306 304 303 302 300 299 297 295 294 292 289 286 283 278 273 268 266 262 257 252 249 246 243 240 237 234 233 233 233
346 345 342 339 336 333 330 327 323 320 317 315 313 311 308 306 304 302 300 298 296 293 291 289 286 284 281 278 274 269 265 262 258 254 249 246 244 241 238 234 231 230 230
343 341 338 335 333 331 329 327 325 324 322 319 317 315 313 310 308 305 302 299 296 293 290 287 284 281 279 277 275 272 268 263 259 255 251 247 243 241 238 235 232 229 228
337 335 334 332 331 330 330 329 328 327 325 324 322 320 317 314 311 308 305 301 297 293 289 286 283 280 279 277 276 274 271 266 262 257 253 249 244 240 238 235 233 230 226
331 330 331 331 331 330 331 331 330 330 329 327 326 323 321 318 315 312 308 304 300 295 291 287 284 282 280 279 277 275 272 269 265 260 256 251 245 240 237 235 233 230 227
326 328 330 331 331 331 331 333 333 333 332 330 329 327 325 322 318 315 311 307 303 298 294 291 288 285 283 281 279 276 273 270 267 263 258 253 247 241 237 234 232 230 227
326 328 329 330 331 332 333 334 335 335 333 332 331 329 327 325 321 318 313 309 305 301 297 294 291 288 286 284 281 278 274 271 268 264 260 255 249 243 237 233 231 229 227
324 325 327 331 334 335 335 336 335 335 334 333 333 331 330 327 324 320 316 311 307 304 300 297 294 291 289 287 283 280 276 272 269 265 261 256 250 244 238 233 230 228 226
322 324 328 333 335 335 335 335 335 335 335 334 334 333 331 329 325 322 317 314 310 307 303 300 298 295 293 290 286 282 279 275 271 266 261 256 251 245 239 233 228 226 225
323 326 329 332 333 334 334 334 334 334 334 334 334 334 333 330 327 323 319 316 314 310 307 305 302 299 296 293 290 287 282 278 273 267 260 255 250 244 238 232 226 223 222
325 327 329 330 331 332 333 333 333 333 334 334 334 334 334 332 329 325 321 319 317 314 312 308 306 303 300 297 294 290 286 281 274 268 260 254 248 243 236 230 224 220 219
326 326 327 328 329 330 331 332 333 333 334 335 335 335 335 333 330 326 323 321 320 318 316 312 309 307 304 300 297 293 289 283 275 269 260 252 245 239 233 227 222 218 215
325 325 325 326 328 330 331 331 332 333 335 335 336 336 335 334 331 328 326 324 323 321 319 316 314 312 310 305 301 298 293 286 278 268 258 249 240 234 228 223 218 215 213
323 324 324 326 327 328 329 330 331 333 335 336 336 336 336 335 333 330 328 327 326 325 322 320 318 317 315 311 307 304 299 292 281 269 257 245 235 228 222 216 213 210 210
322 323 324 325 326 327 327 329 331 333 334 336 336 336 336 336 335 332 331 330 330 328 326 324 324 323 322 318 315 312 305 298 287 270 252 237 226 218 212 209 207 206 206
321 322 324 324 325 326 327 328 331 332 334 335 336 336 336 336 336 334 333 333 332 331 330 328 328 329 329 326 325 322 317 308 292 266 238 220 211 206 202 200 200 200 204
321 322 323 324 324 324 326 328 330 332 333 335 336 336 336 336 336 335 335 335 335 333 333 333 333 334 335 334 334 333 330 323 308 259 214 201 196 194 193 194 195 197 200
320 322 322 323 324 324 325 327 329 331 332 333 335 335 336 336 336 336 336 337 337 337 337 337 337 339 340 340 341 343 343 344 340 182 179 178 179 185 188 190 191 193 195
320 320 321 322 323 325 325 326 327 329 330 332 333 334 335 336 336 337 337 339 339 340 340 340 340 342 344 345 347 349 354 4 60 146 163 168 170 173 180 186 189 189 191
Height
5867 5865 5863 5861 5859 5856 5853 5849 5846 5843 5840 5836 5833 5830 5828 5825 5822 5819 5817 5815 5813 5810 5809 5807 5805 5804 5803 5802 5802 5802 5802 5802 5802 5802 5802 5803 5804 5805 5807 5809 5811 5814 5817
5864 5862 5860 5857 5854 5851 5848 5844 5840 5837 5833 5829 5826 5823 5820 5817 5814 5810 5808 5805 5803 5801 5799 5797 5795 5794 5793 5793 5792 5792 5793 5793 5794 5795 5795 5796 5798 5799 5801 5803 5805 5807 5810
5860 5858 5856 5853 5850 5846 5842 5838 5834 5830 5826 5822 5818 5815 5811 5808 5805 5801 5798 5795 5793 5790 5789 5787 5785 5783 5783 5782 5782 5782 5783 5784 5785 5786 5788 5789 5791 5792 5794 5796 5798 5800 5803
5857 5854 5851 5848 5844 5840 5836 5832 5828 5823 5819 5815 5811 5807 5803 5799 5796 5792 5789 5785 5782 5780 5778 5776 5775 5773 5772 5771 5771 5771 5772 5773 5774 5776 5778 5780 5782 5785 5787 5789 5791 5793 5796
5853 5850 5846 5842 5838 5834 5830 5825 5821 5817 5812 5808 5804 5799 5795 5791 5787 5784 5780 5776 5772 5769 5767 5766 5764 5762 5761 5760 5760 5760 5761 5762 5764 5765 5768 5770 5773 5776 5778 5781 5783 5786 5789
5848 5844 5841 5837 5832 5828 5823 5819 5815 5810 5806 5801 5797 5792 5787 5783 5779 5775 5771 5767 5763 5759 5756 5755 5753 5752 5751 5750 5749 5749 5750 5752 5753 5754 5757 5760 5763 5766 5769 5772 5775 5778 5781
5843 5839 5836 5831 5827 5822 5817 5812 5808 5803 5798 5793 5788 5783 5779 5774 5770 5765 5761 5757 5753 5749 5746 5744 5742 5741 5740 5740 5739 5739 5740 5741 5743 5744 5746 5749 5752 5755 5759 5762 5766 5769 5772
5839 5835 5831 5826 5821 5816 5811 5806 5801 5796 5791 5785 5780 5775 5770 5765 5760 5756 5752 5748 5744 5740 5736 5733 5731 5729 5729 5729 5728 5729 5729 5730 5732 5734 5736 5738 5741 5744 5748 5752 5756 5759 5763
5834 5830 5826 5821 5817 5811 5806 5800 5794 5789 5783 5778 5772 5767 5761 5756 5751 5747 5742 5738 5733 5729 5725 5722 5719 5717 5716 5715 5716 5717 5717 5718 5720 5722 5724 5727 5730 5733 5737 5741 5745 5750 5754
5831 5827 5823 5818 5813 5807 5801 5794 5788 5782 5776 5770 5764 5758 5753 5747 5742 5737 5732 5727 5722 5718 5714 5710 5707 5704 5702 5701 5702 5702 5703 5704 5706 5708 5711 5715 5718 5721 5725 5729 5733 5738 5743
5829 5825 5820 5815 5809 5802 5795 5789 5782 5776 5769 5763 5757 5750 5744 5738 5732 5726 5720 5715 5710 5705 5701 5697 5694 5691 5689 5688 5687 5687 5688 5689 5691 5693 5696 5700 5704 5708 5712 5716 5721 5726 5731
5826 5822 5817 5811 5804 5798 5791 5784 5777 5770 5763 5756 5749 5742 5735 5728 5721 5715 5708 5702 5697 5692 5687 5684 5681 5678 5676 5674 5673 5672 5672 5673 5675 5677 5679 5683 5687 5692 5697 5702 5708 5714 5719
5823 5818 5812 5806 5800 5793 5786 5779 5771 5764 5757 5749 5742 5734 5727 5719 5711 5703 5696 5690 5684 5679 5674 5671 5667 5664 5662 5660 5658 5656 5656 5656 5657 5659 5661 5665 5669 5675 5680 5686 5693 5699 5706
5818 5813 5808 5801 5795 5787 5780 5773 5765 5758 5750 5742 5734 5726 5718 5709 5701 5693 5685 5678 5672 5667 5663 5658 5654 5651 5647 5645 5642 5640 5639 5638 5638 5639 5641 5644 5649 5655 5661 5669 5676 5684 5692
5813 5808 5803 5796 5789 5781 5774 5766 5759 5751 5743 5735 5726 5718 5709 5700 5691 5683 5675 5668 5662 5656 5651 5646 5641 5637 5633 5629 5625 5623 5621 5619 5618 5618 5619 5622 5627 5633 5641 5649 5658 5666 5676
5809 5803 5797 5790 5782 5775 5767 5760 5752 5744 5735 5727 5718 5709 5700 5691 5681 5673 5665 5658 5651 5645 5639 5634 5628 5623 5618 5613 5608 5605 5602 5600 5598 5597 5598 5600 5605 5611 5619 5628 5637 5648 5658
5803 5797 5790 5783 5776 5769 5761 5753 5745 5736 5728 5719 5710 5700 5691 5681 5672 5663 5655 5648 5641 5634 5627 5621 5614 5609 5602 5596 5591 5587 5583 5580 5578 5577 5577 5579 5583 5588 5596 5606 5616 5628 5639
5796 5790 5784 5777 5770 5762 5754 5746 5738 5729 5720 5711 5701 5692 5682 5673 5663 5654 5645 5637 5630 5623 5615 5608 5601 5595 5588 5581 5575 5569 5565 5561 5558 5557 5557 5559 5562 5568 5575 5585 5596 5608 5621
5790 5784 5777 5770 5763 5756 5748 5739 5731 5722 5713 5703 5694 5684 5674 5665 5655 5645 5636 5628 5620 5612 5604 5596 5589 5582 5575 5567 5560 5553 5548 5543 5540 5537 5537 5539 5543 5548 5555 5565 5578 5591 5603
5783 5777 5770 5764 5756 5749 5741 5732 5724 5715 5705 5696 5686 5676 5666 5656 5646 5637 5627 5619 5610 5602 5594 5586 5578 5570 5563 5554 5546 5538 5532 5526 5522 5520 5519 5521 5525 5530 5537 5548 5560 5574 5587
5777 5770 5763 5756 5749 5742 5734 5725 5716 5707 5698 5688 5679 5668 5658 5648 5638 5628 5619 5610 5602 5593 5585 5577 5568 5560 5551 5542 5534 5526 5519 5513 5509 5506 5505 5507 5511 5516 5525 5535 5547 5561 5574
5770 5764 5757 5749 5742 5734 5727 5718 5709 5700 5691 5681 5671 5661 5651 5640 5630 5621 5611 5602 5593 5584 5576 5567 5559 5550 5541 5532 5524 5516 5509 5504 5499 5497 5496 5498 5501 5507 5516 5526 5538 5550 5562
5763 5756 5749 5742 5735 5727 5719 5711 5702 5693 5683 5673 5664 5654 5643 5633 5623 5613 5604 5595 5585 5577 5568 5560 5551 5543 5533 5525 5517 5510 5503 5498 5494 5492 5492 5494 5498 5503 5511 5521 5532 5543 5555
5755 5748 5741 5734 5727 5719 5711 5703 5694 5685 5676 5667 5657 5647 5637 5626 5616 5607 5597 5588 5579 5570 5562 5553 5545 5537 5528 5521 5513 5506 5501 5496 5493 5492 5492 5494 5498 5503 5511 5519 5529 5539 5550
5747 5740 5733 5726 5719 5711 5703 5695 5686 5678 5669 5659 5650 5640 5631 5621 5611 5601 5592 5583 5574 5565 5557 5549 5541 5533 5526 5518 5512 5506 5501 5498 5495 5495 5495 5497 5501 5506 5512 5520 5528 5537 5547
5738 5731 5725 5717 5710 5703 5695 5687 5678 5670 5662 5653 5644 5634 5625 5615 5606 5596 5587 5577 5569 5561 5553 5545 5538 5531 5524 5518 5512 5507 5503 5500 5499 5499 5500 5502 5505 5509 5515 5521 5529 5537 5546